Flag for U.S.A. Weather past 2 weeks in Downey, California, U.S.A.

Now
64 °F

Sunny.


Feels Like: 64 °F
Forecast: 61 / 84 °F
Wind: 7 mph from Northwest

Location: Long Beach Airport

Current Time: May 29, 2015 at 9:58:23 PM

Latest Report: May 29, 2015 at 8:53 PM


Visibility: 10 mi

Pressure: 29.90 "Hg

Humidity: 78%

Dew point: 57 °F

Location of DowneyLocation

Historic Weather in Downey — Graph

°F

Downey temperature yesterday

Maximum temperature yesterday: 72 °F (at 5:53 PM)
Minimum temperature yesterday: 60 °F (at 12:53 AM)
Average temperature yesterday: 64 °F

Past Weeks' High & Low Weather Summary

 TemperatureHumidityPressure
High75 °F (May 29, 4:53 PM)87% (May 15, 1:53 AM)30.09 "Hg (May 15, 1:53 AM)
Low55 °F (May 16, 4:53 AM)44% (May 21, 1:53 PM)29.83 "Hg (May 15, 4:53 PM)
Average64 °F68%29.98 "Hg
* Reported May 14 7:53 PM — May 29 7:53 PM, Downey, Weather by CustomWeather, © 2015

Note: Actual official high and low records may vary slightly from our data, if they occured in-between our weather recording intervals... More about our weather records

Advertising

Downey weather history for previous 24 hours

 ConditionsComfort  
Time TempWeatherWind HumidityBarometerVisibility
7:53 PM
Fri, May 29
66 °FSunny.10 mph73%29.90 "Hg8 mi
6:53 PM70 °FSunny.9 mph64%29.88 "Hg8 mi
5:53 PM73 °FSunny.6 mph57%29.88 "Hg10 mi
4:53 PM75 °FSunny.7 mph54%29.87 "Hg10 mi
3:53 PM72 °FSunny.10 mph59%29.89 "Hg10 mi
2:53 PM72 °FSunny.10 mph59%29.91 "Hg9 mi
1:53 PM72 °FSunny.9 mph59%29.93 "Hg8 mi
12:53 PM73 °FSunny.7 mph57%29.94 "Hg7 mi
11:53 AM69 °FSunny.8 mph66%29.95 "Hg7 mi
11:03 AM68 °FScattered clouds.3 mph68%29.96 "Hg6 mi
10:53 AM67 °FPartly sunny.3 mph71%29.96 "Hg6 mi
9:53 AM64 °FOvercast.3 mph75%29.96 "Hg5 mi
8:53 AM63 °FOvercast.5 mph78%29.97 "Hg5 mi
7:53 AM61 °FLow clouds.No wind83%29.96 "Hg5 mi
6:53 AM60 °FFog.5 mph86%29.96 "Hg6 mi
5:53 AM61 °FFog.5 mph87%29.95 "Hg6 mi
4:53 AM61 °FLow clouds.No wind83%29.94 "Hg6 mi
3:53 AM61 °FOvercast.5 mph83%29.93 "Hg7 mi
2:53 AM61 °FOvercast.No wind83%29.94 "Hg9 mi
1:53 AM61 °FPassing clouds.No wind81%29.95 "Hg10 mi
12:53 AM61 °FClear.No wind81%29.95 "Hg10 mi
11:53 PM
Thu, May 28
61 °FClear.No wind81%29.96 "Hg10 mi
10:53 PM61 °FClear.6 mph83%29.96 "Hg10 mi
9:53 PM62 °FClear.6 mph80%29.95 "Hg10 mi
Weather by CustomWeather, © 2015

See weather overviewHow to use our weather pages